Voltar ao catálogo

FENGYUN 1C DEB

AtivoPO
NORAD 31672·DEBRIS·🇨🇳 China

Lançado May 10, 1999 de Taiyuan Satellite Launch Center

Loading…

Próximas Passagens (próximas 24 horas)

TLE

EnvelhecendoSource: Space-Track

Época: Sep 9, 2026, 07:42 UTC

1 31672U 99025CCE 26252.32134537  .00004021  00000-0  89935-3 0  9993
2 31672  98.9418 103.1623 0099974 245.3706 113.7049 14.54288594688008

Acompanhe FENGYUN 1C DEB em tempo real com AllMySat

Download on the App Store